• In Deutschland
  • Länderverzeichnis
  • Für 7 Tage
  • Wassertemperatur
  • Satellitenkarten
  • Wetterkarte
  • Widgets
  • user-avatar
    Anmelden

    Stündliche Wetter Bayrischzell

    Heute, 21 April, Samstag

    Zeit Temperatur Niederschläge Wind Luftdruck Luftfeuchtigkeit
    00:00 +9°C° 0 mm 2 m/S 658 mmHg 71%
    01:00 +8°C° 0 mm 2 m/S 658 mmHg 69%
    02:00 +8°C° 0 mm 2 m/S 657 mmHg 67%
    03:00 +8°C° 0 mm 2 m/S 657 mmHg 66%
    04:00 +7°C° 0 mm 2 m/S 657 mmHg 64%
    05:00 +8°C° 0 mm 2 m/S 657 mmHg 62%
    06:00 +10°C° 0 mm 1 m/S 657 mmHg 61%
    07:00 +11°C° 0 mm 1 m/S 658 mmHg 59%
    08:00 +14°C° 0 mm 1 m/S 658 mmHg 55%
    09:00 +18°C° 0 mm 1 m/S 659 mmHg 51%
    10:00 +20°C° 0 mm 1 m/S 660 mmHg 47%
    11:00 +21°C° 0 mm 1 m/S 659 mmHg 46%
    12:00 +20°C° 0 mm 2 m/S 659 mmHg 45%
    13:00 +21°C° 0 mm 2 m/S 659 mmHg 44%
    14:00 +21°C° 0,3 mm 2 m/S 659 mmHg 48%
    15:00 +20°C° 0,3 mm 2 m/S 658 mmHg 52%
    16:00 +20°C° 0,3 mm 2 m/S 658 mmHg 55%
    17:00 +19°C° 0,4 mm 1 m/S 657 mmHg 64%
    18:00 +15°C° 0,4 mm 1 m/S 657 mmHg 73%
    19:00 +12°C° 0,4 mm 0 m/S 656 mmHg 82%
    20:00 +12°C° 0,5 mm 0 m/S 656 mmHg 84%
    21:00 +12°C° 0,5 mm 1 m/S 656 mmHg 86%
    22:00 +11°C° 0,5 mm 1 m/S 656 mmHg 88%
    23:00 +11°C° 0,3 mm 1 m/S 656 mmHg 89%

    Morgen, 22 April, Sonntag

    Zeit Temperatur Niederschläge Wind Luftdruck Luftfeuchtigkeit
    00:00 +10°C° 0,3 mm 1 m/S 656 mmHg 89%
    01:00 +10°C° 0,3 mm 1 m/S 656 mmHg 90%
    02:00 +10°C° 0,1 mm 1 m/S 656 mmHg 90%
    03:00 +9°C° 0,1 mm 1 m/S 656 mmHg 90%
    04:00 +9°C° 0,1 mm 1 m/S 655 mmHg 91%
    05:00 +10°C° 0 mm 1 m/S 656 mmHg 88%
    06:00 +11°C° 0 mm 1 m/S 656 mmHg 85%
    07:00 +12°C° 0 mm 1 m/S 656 mmHg 83%
    08:00 +14°C° 0 mm 1 m/S 657 mmHg 74%
    09:00 +18°C° 0 mm 1 m/S 657 mmHg 64%
    10:00 +18°C° 0 mm 0 m/S 658 mmHg 55%
    11:00 +21°C° 0,1 mm 1 m/S 658 mmHg 51%
    12:00 +22°C° 0,1 mm 1 m/S 658 mmHg 46%
    13:00 +22°C° 0,1 mm 1 m/S 658 mmHg 42%
    14:00 +22°C° 0,1 mm 1 m/S 657 mmHg 44%
    15:00 +20°C° 0,1 mm 2 m/S 657 mmHg 45%
    16:00 +20°C° 0,1 mm 2 m/S 657 mmHg 47%
    17:00 +19°C° 0,3 mm 1 m/S 656 mmHg 57%
    18:00 +16°C° 0,3 mm 1 m/S 656 mmHg 68%
    19:00 +12°C° 0,3 mm 0 m/S 655 mmHg 78%
    20:00 +13°C° 0,3 mm 1 m/S 655 mmHg 80%
    21:00 +12°C° 0,3 mm 1 m/S 655 mmHg 82%
    22:00 +10°C° 0,3 mm 2 m/S 656 mmHg 84%
    23:00 +10°C° 0 mm 2 m/S 655 mmHg 84%

    übermorgen, 23 April, Montag

    Zeit Temperatur Niederschläge Wind Luftdruck Luftfeuchtigkeit
    00:00 +9°C° 0 mm 2 m/S 655 mmHg 84%
    01:00 +9°C° 0 mm 2 m/S 655 mmHg 84%
    02:00 +9°C° 0 mm 2 m/S 655 mmHg 83%
    03:00 +8°C° 0 mm 2 m/S 655 mmHg 83%
    04:00 +8°C° 0 mm 2 m/S 655 mmHg 83%
    05:00 +9°C° 0 mm 2 m/S 655 mmHg 80%
    06:00 +10°C° 0 mm 2 m/S 655 mmHg 78%
    07:00 +12°C° 0 mm 1 m/S 655 mmHg 75%
    08:00 +15°C° 0 mm 1 m/S 656 mmHg 65%
    09:00 +18°C° 0 mm 1 m/S 657 mmHg 54%
    10:00 +20°C° 0 mm 2 m/S 657 mmHg 43%
    11:00 +20°C° 0 mm 2 m/S 657 mmHg 42%
    12:00 +20°C° 0 mm 3 m/S 657 mmHg 42%
    13:00 +20°C° 0 mm 3 m/S 657 mmHg 41%
    14:00 +19°C° 0,6 mm 3 m/S 656 mmHg 50%
    15:00 +17°C° 0,6 mm 3 m/S 655 mmHg 60%
    16:00 +16°C° 0,6 mm 3 m/S 655 mmHg 69%
    17:00 +13°C° 2,9 mm 3 m/S 655 mmHg 77%
    18:00 +11°C° 2,9 mm 3 m/S 655 mmHg 85%
    19:00 +10°C° 2,9 mm 3 m/S 654 mmHg 93%
    20:00 +9°C° 1,8 mm 3 m/S 655 mmHg 93%
    21:00 +9°C° 1,8 mm 2 m/S 655 mmHg 93%
    22:00 +9°C° 1,8 mm 2 m/S 656 mmHg 94%
    23:00 +8°C° 0,2 mm 2 m/S 656 mmHg 94%

    24 April, Dienstag

    Zeit Temperatur Niederschläge Wind Luftdruck Luftfeuchtigkeit
    00:00 +8°C° 0,2 mm 2 m/S 656 mmHg 94%
    01:00 +7°C° 0,2 mm 2 m/S 655 mmHg 95%
    02:00 +8°C° 0,1 mm 1 m/S 655 mmHg 95%
    03:00 +8°C° 0,1 mm 1 m/S 655 mmHg 95%
    04:00 +7°C° 0,1 mm 1 m/S 655 mmHg 95%
    05:00 +8°C° 0 mm 1 m/S 656 mmHg 93%
    06:00 +8°C° 0 mm 1 m/S 656 mmHg 92%
    07:00 +9°C° 0 mm 1 m/S 656 mmHg 90%
    08:00 +11°C° 0 mm 1 m/S 657 mmHg 78%
    09:00 +14°C° 0 mm 1 m/S 657 mmHg 66%
    10:00 +16°C° 0 mm 1 m/S 658 mmHg 54%
    11:00 +17°C° 0 mm 2 m/S 658 mmHg 49%
    12:00 +18°C° 0 mm 2 m/S 658 mmHg 43%
    13:00 +19°C° 0 mm 2 m/S 658 mmHg 38%
    14:00 +19°C° 0 mm 2 m/S 658 mmHg 39%
    15:00 +19°C° 0 mm 2 m/S 657 mmHg 41%
    16:00 +19°C° 0 mm 2 m/S 657 mmHg 42%
    17:00 +16°C° 0 mm 2 m/S 656 mmHg 53%
    18:00 +14°C° 0 mm 1 m/S 656 mmHg 65%
    19:00 +11°C° 0 mm 0 m/S 655 mmHg 76%
    20:00 +11°C° 0 mm 1 m/S 655 mmHg 78%
    21:00 +10°C° 0 mm 1 m/S 655 mmHg 80%
    22:00 +9°C° 0 mm 1 m/S 655 mmHg 82%
    23:00 +9°C° 0 mm 1 m/S 655 mmHg 81%

    25 April, Mittwoch

    Zeit Temperatur Niederschläge Wind Luftdruck Luftfeuchtigkeit
    00:00 +8°C° 0 mm 2 m/S 655 mmHg 80%
    01:00 +7°C° 0 mm 2 m/S 655 mmHg 79%
    02:00 +7°C° 0 mm 2 m/S 654 mmHg 78%
    03:00 +7°C° 0 mm 2 m/S 654 mmHg 78%
    04:00 +7°C° 0 mm 2 m/S 654 mmHg 77%
    05:00 +9°C° 0 mm 1 m/S 654 mmHg 74%
    06:00 +10°C° 0 mm 1 m/S 655 mmHg 70%
    07:00 +11°C° 0 mm 1 m/S 655 mmHg 67%
    08:00 +14°C° 0 mm 1 m/S 655 mmHg 59%
    09:00 +18°C° 0 mm 1 m/S 656 mmHg 50%
    10:00 +21°C° 0 mm 1 m/S 657 mmHg 41%
    11:00 +22°C° 0 mm 1 m/S 657 mmHg 39%
    12:00 +21°C° 0 mm 2 m/S 656 mmHg 36%
    13:00 +23°C° 0 mm 2 m/S 656 mmHg 34%
    14:00 +23°C° 0 mm 2 m/S 656 mmHg 38%
    15:00 +21°C° 0 mm 2 m/S 655 mmHg 42%
    16:00 +20°C° 0 mm 2 m/S 655 mmHg 46%
    17:00 +18°C° 0 mm 2 m/S 654 mmHg 54%
    18:00 +16°C° 0 mm 1 m/S 653 mmHg 62%
    19:00 +14°C° 0 mm 1 m/S 653 mmHg 70%
    20:00 +13°C° 0,6 mm 1 m/S 653 mmHg 75%
    21:00 +13°C° 0,6 mm 1 m/S 653 mmHg 80%
    22:00 +12°C° 0,6 mm 1 m/S 653 mmHg 85%
    23:00 +12°C° 0,3 mm 1 m/S 653 mmHg 87%

    26 April, Donnerstag

    Zeit Temperatur Niederschläge Wind Luftdruck Luftfeuchtigkeit
    00:00 +11°C° 0,3 mm 1 m/S 653 mmHg 88%
    01:00 +11°C° 0,3 mm 1 m/S 653 mmHg 89%
    02:00 +11°C° 0,4 mm 1 m/S 653 mmHg 91%
    03:00 +10°C° 0,4 mm 1 m/S 653 mmHg 93%
    04:00 +10°C° 0,4 mm 1 m/S 653 mmHg 95%
    05:00 +10°C° 1,9 mm 1 m/S 653 mmHg 95%
    06:00 +9°C° 1,9 mm 2 m/S 653 mmHg 96%
    07:00 +8°C° 1,9 mm 2 m/S 653 mmHg 96%
    08:00 +7°C° 1,5 mm 2 m/S 654 mmHg 95%
    09:00 +7°C° 1,5 mm 3 m/S 654 mmHg 95%
    10:00 +5°C° 1,5 mm 3 m/S 654 mmHg 94%
    11:00 +5°C° 0,7 mm 3 m/S 654 mmHg 90%
    12:00 +7°C° 0,7 mm 3 m/S 654 mmHg 85%
    13:00 +7°C° 0,7 mm 3 m/S 654 mmHg 81%
    14:00 +7°C° 0,3 mm 2 m/S 654 mmHg 80%
    15:00 +7°C° 0,3 mm 2 m/S 654 mmHg 78%
    16:00 +7°C° 0,3 mm 2 m/S 654 mmHg 77%
    17:00 +7°C° 0,1 mm 2 m/S 655 mmHg 78%
    18:00 +6°C° 0,1 mm 2 m/S 655 mmHg 78%
    19:00 +6°C° 0,1 mm 2 m/S 655 mmHg 79%
    20:00 +5°C° 0,1 mm 2 m/S 655 mmHg 80%
    21:00 +5°C° 0,1 mm 1 m/S 656 mmHg 81%
    22:00 +5°C° 0,1 mm 1 m/S 657 mmHg 83%
    23:00 +4°C° 0,1 mm 1 m/S 657 mmHg 84%
    Mehr zeigen